Flag for Russia Weather past 2 weeks in Salekhard, Russia

Now
68 °F

Broken clouds.


Feels Like: 68 °F
Forecast: 45 / 50 °F
Wind: 3 mph from South

Location: Hanty-Mansijsk

Current Time: Jul 23, 2014 at 4:59:00 PM

Latest Report: Jul 23, 2014 at 4:30 PM


Visibility: N/A

Pressure: 29.39 "Hg

Humidity: 49%

Dew point: 48 °F

Location of SalekhardLocation

Historic Weather in Salekhard — Graph

°F

Salekhard temperature yesterday

Maximum temperature yesterday: 73 °F (at 1:30 PM)
Minimum temperature yesterday: 59 °F (at 2:00 AM)
Average temperature yesterday: 65 °F

Past Weeks' High & Low Weather Summary

 TemperatureHumidityPressure
High73 °F (Jul 16, 4:00 PM)100% (Jul 22, 7:30 PM)29.95 "Hg (Jul 22, 7:30 PM)
Low43 °F (Jul 19, 5:00 AM)32% (Jul 20, 5:30 PM)29.39 "Hg (Jul 22, 4:30 PM)
Average56 °F72%29.73 "Hg
* Reported Jul 8 3:00 PM — Jul 23 3:30 PM, Salekhard, Weather by CustomWeather, © 2014

Note: Actual official high and low records may vary slightly from our data, if they occured in-between our weather recording intervals... More about our weather records

Advertising

Salekhard weather history for previous 24 hours

 ConditionsComfort  
Time TempWeatherWind HumidityBarometerVisibility
3:30 PM
Jul 23
66 °FBroken clouds.1 mph52%29.42 "HgN/A
3:00 PM68 °FBroken clouds.3 mph53%29.42 "HgN/A
2:30 PM68 °FBroken clouds.6 mph53%29.42 "HgN/A
2:00 PM66 °FBroken clouds.3 mph56%29.42 "HgN/A
12:00 PM63 °FBroken clouds.1 mph64%29.42 "HgN/A
11:00 AM61 °FBroken clouds.3 mph77%29.42 "HgN/A
10:30 AM61 °FBroken clouds.6 mph77%29.42 "HgN/A
10:00 AM59 °FBroken clouds.6 mph82%29.42 "HgN/A
9:30 AM57 °FMostly cloudy.6 mph88%29.42 "HgN/A
9:00 AM57 °FMostly cloudy.6 mph94%29.42 "HgN/A
8:30 AM55 °FMostly cloudy.6 mph100%29.42 "Hg5 mi
8:00 AM55 °FFog.6 mph100%29.42 "Hg3 mi
7:30 AM55 °FFog.3 mph94%29.42 "Hg0 mi
7:00 AM55 °FFog.3 mph94%29.42 "Hg0 mi
6:30 AM55 °FFog.3 mph94%29.42 "Hg0 mi
6:00 AM55 °FFog.3 mph94%29.42 "Hg0 mi
10:30 PM
Jul 22
59 °FSprinkles. Mostly cloudy.3 mph94%29.39 "Hg2 mi
10:00 PM61 °FSprinkles. Mostly cloudy.1 mph94%29.39 "Hg3 mi
7:30 PM64 °FSprinkles. More clouds than sun.8 mph100%29.39 "HgN/A
7:00 PM64 °FMore clouds than sun.6 mph94%29.39 "HgN/A
6:30 PM64 °FSprinkles. Mostly cloudy.10 mph94%29.39 "Hg1 mi
6:00 PM64 °FSprinkles. More clouds than sun.8 mph94%29.39 "HgN/A
5:30 PM64 °FSprinkles. More clouds than sun.3 mph94%29.39 "Hg6 mi
5:00 PM63 °FThundershowers. Fog.15 mph94%29.42 "Hg2 mi
4:30 PM68 °FThunderstorms. Partly sunny.1 mph88%29.39 "Hg5 mi
4:00 PM70 °FThunderstorms. Partly sunny.6 mph78%29.42 "Hg6 mi
Weather by CustomWeather, © 2014

See weather overviewHow to use our weather pages